Time,TemperatureF,DewpointF,PressureIn,WindDirection,WindDirectionDegrees,WindSpeedMPH,WindSpeedGustMPH,Humidity,HourlyPrecipIn,Conditions,Clouds,dailyrainin,SoftwareType,DateUTC
2013-09-04 00:01:00,66.7,60.0,29.05,WSW,247,0.0,2.0,81,0.00,,,0.00,Rainwise IP-100,2013-09-04 05:01:00,
2013-09-04 00:06:00,66.6,60.0,29.05,SW,225,0.0,1.0,81,0.00,,,0.00,Rainwise IP-100,2013-09-04 05:06:00,
2013-09-04 00:11:00,66.3,60.0,29.04,SW,225,0.0,2.0,82,0.00,,,0.00,Rainwise IP-100,2013-09-04 05:11:00,
2013-09-04 00:16:00,66.3,60.0,29.05,SW,225,0.0,1.0,82,0.00,,,0.00,Rainwise IP-100,2013-09-04 05:16:00,
2013-09-04 00:21:00,66.4,60.0,29.06,WSW,247,1.2,3.0,82,0.00,,,0.00,Rainwise IP-100,2013-09-04 05:21:00,
2013-09-04 00:26:00,66.4,60.0,29.06,WSW,247,0.0,1.0,82,0.00,,,0.00,Rainwise IP-100,2013-09-04 05:26:00,
2013-09-04 00:31:00,66.3,60.0,29.06,WSW,247,0.0,2.0,82,0.00,,,0.00,Rainwise IP-100,2013-09-04 05:31:00,
2013-09-04 00:36:00,66.1,60.0,29.06,WSW,247,0.0,1.0,82,0.00,,,0.00,Rainwise IP-100,2013-09-04 05:36:00,
2013-09-04 00:41:00,66.1,60.0,29.06,WSW,247,0.0,1.0,82,0.00,,,0.00,Rainwise IP-100,2013-09-04 05:41:00,
2013-09-04 00:46:00,66.1,60.0,29.06,WSW,247,1.4,2.0,82,0.00,,,0.00,Rainwise IP-100,2013-09-04 05:46:00,
2013-09-04 00:51:00,66.2,60.0,29.06,WSW,247,1.9,2.0,82,0.00,,,0.00,Rainwise IP-100,2013-09-04 05:51:00,
2013-09-04 00:56:00,66.2,60.0,29.06,WSW,247,0.0,2.0,82,0.00,,,0.00,Rainwise IP-100,2013-09-04 05:56:00,
2013-09-04 01:01:00,66.2,60.0,29.06,WSW,247,0.0,2.0,82,0.00,,,0.00,Rainwise IP-100,2013-09-04 06:01:00,
2013-09-04 01:06:00,66.1,60.0,29.06,WSW,247,0.0,2.0,82,0.00,,,0.00,Rainwise IP-100,2013-09-04 06:06:00,
2013-09-04 01:11:00,66.2,60.0,29.06,WSW,247,0.0,1.0,82,0.00,,,0.00,Rainwise IP-100,2013-09-04 06:11:00,
2013-09-04 01:16:00,66.2,60.0,29.06,WSW,247,1.9,2.0,82,0.00,,,0.00,Rainwise IP-100,2013-09-04 06:16:00,
2013-09-04 01:21:00,66.2,60.0,29.07,WSW,247,1.6,2.0,82,0.00,,,0.00,Rainwise IP-100,2013-09-04 06:21:00,
2013-09-04 01:26:00,66.3,60.0,29.06,WSW,247,0.0,2.0,82,0.00,,,0.00,Rainwise IP-100,2013-09-04 06:26:00,
2013-09-04 01:31:00,66.2,60.0,29.06,WSW,247,0.0,2.0,82,0.00,,,0.00,Rainwise IP-100,2013-09-04 06:31:00,
2013-09-04 01:36:00,66.1,60.0,29.07,WSW,247,0.0,2.0,82,0.00,,,0.00,Rainwise IP-100,2013-09-04 06:36:00,
2013-09-04 01:41:00,66.1,60.0,29.07,WSW,247,0.0,2.0,82,0.00,,,0.00,Rainwise IP-100,2013-09-04 06:41:00,
2013-09-04 01:46:00,66.0,60.0,29.07,WSW,247,0.0,0.0,82,0.00,,,0.00,Rainwise IP-100,2013-09-04 06:46:00,
2013-09-04 01:51:00,65.9,60.0,29.07,WSW,247,0.0,1.0,83,0.00,,,0.00,Rainwise IP-100,2013-09-04 06:51:00,
2013-09-04 01:56:00,66.0,60.0,29.07,WSW,247,0.0,0.0,83,0.00,,,0.00,Rainwise IP-100,2013-09-04 06:56:00,
2013-09-04 02:01:00,65.9,60.0,29.07,WSW,247,0.0,0.0,83,0.00,,,0.00,Rainwise IP-100,2013-09-04 07:01:00,
2013-09-04 02:06:00,65.6,60.0,29.07,WSW,247,0.0,1.0,83,0.00,,,0.00,Rainwise IP-100,2013-09-04 07:06:00,
2013-09-04 02:11:00,65.4,60.0,29.07,WSW,247,0.0,1.0,83,0.00,,,0.00,Rainwise IP-100,2013-09-04 07:11:00,
2013-09-04 02:16:00,65.2,60.0,29.07,WSW,247,0.0,1.0,84,0.00,,,0.00,Rainwise IP-100,2013-09-04 07:16:00,
2013-09-04 02:21:00,65.2,60.0,29.07,WSW,247,0.0,1.0,84,0.00,,,0.00,Rainwise IP-100,2013-09-04 07:21:00,
2013-09-04 02:26:00,65.2,60.0,29.07,WSW,247,0.0,0.0,84,0.00,,,0.00,Rainwise IP-100,2013-09-04 07:26:00,
2013-09-04 02:31:00,65.0,60.0,29.08,South,180,0.0,1.0,85,0.00,,,0.00,Rainwise IP-100,2013-09-04 07:31:00,
2013-09-04 02:36:00,64.9,60.0,29.08,South,180,0.0,0.0,85,0.00,,,0.00,Rainwise IP-100,2013-09-04 07:36:00,
2013-09-04 02:41:00,64.6,60.0,29.07,South,180,0.0,0.0,85,0.00,,,0.00,Rainwise IP-100,2013-09-04 07:41:00,
2013-09-04 02:46:00,64.3,60.0,29.07,South,180,0.0,0.0,86,0.00,,,0.00,Rainwise IP-100,2013-09-04 07:46:00,
2013-09-04 02:51:00,64.1,60.0,29.07,South,180,0.0,0.0,87,0.00,,,0.00,Rainwise IP-100,2013-09-04 07:51:00,
2013-09-04 02:56:00,64.0,60.0,29.07,South,180,0.0,0.0,87,0.00,,,0.00,Rainwise IP-100,2013-09-04 07:56:00,
2013-09-04 03:01:00,64.0,60.0,29.07,South,180,0.0,0.0,88,0.00,,,0.00,Rainwise IP-100,2013-09-04 08:01:00,
2013-09-04 03:06:00,64.0,60.0,29.07,South,180,0.0,0.0,88,0.00,,,0.00,Rainwise IP-100,2013-09-04 08:06:00,
2013-09-04 03:11:00,63.9,60.0,29.07,South,180,0.0,0.0,89,0.00,,,0.00,Rainwise IP-100,2013-09-04 08:11:00,
2013-09-04 03:16:00,63.8,60.0,29.07,South,180,0.0,0.0,90,0.00,,,0.00,Rainwise IP-100,2013-09-04 08:16:00,
2013-09-04 03:21:00,63.9,61.0,29.07,South,180,0.0,0.0,90,0.00,,,0.00,Rainwise IP-100,2013-09-04 08:21:00,
2013-09-04 03:26:00,63.9,61.0,29.07,South,180,0.0,1.0,90,0.00,,,0.00,Rainwise IP-100,2013-09-04 08:26:00,
2013-09-04 03:31:00,63.9,61.0,29.07,South,180,0.0,0.0,90,0.00,,,0.00,Rainwise IP-100,2013-09-04 08:31:00,
2013-09-04 03:36:00,63.9,61.0,29.07,South,180,0.0,0.0,90,0.00,,,0.00,Rainwise IP-100,2013-09-04 08:36:00,
2013-09-04 03:41:00,64.0,61.0,29.07,South,180,0.0,0.0,90,0.00,,,0.00,Rainwise IP-100,2013-09-04 08:41:00,
2013-09-04 03:46:00,64.0,61.0,29.08,SE,135,0.0,1.0,90,0.00,,,0.00,Rainwise IP-100,2013-09-04 08:46:00,
2013-09-04 03:51:00,63.8,60.0,29.07,ENE,67,0.0,0.0,90,0.00,,,0.00,Rainwise IP-100,2013-09-04 08:51:00,
2013-09-04 03:56:00,63.8,61.0,29.08,ENE,67,0.0,0.0,91,0.00,,,0.00,Rainwise IP-100,2013-09-04 08:56:00,
2013-09-04 04:01:00,63.7,61.0,29.08,ENE,67,0.0,0.0,91,0.00,,,0.00,Rainwise IP-100,2013-09-04 09:01:00,
2013-09-04 04:06:00,63.6,61.0,29.08,ENE,67,0.0,0.0,92,0.00,,,0.00,Rainwise IP-100,2013-09-04 09:06:00,
2013-09-04 04:11:00,63.6,61.0,29.08,SSE,157,0.0,0.0,92,0.00,,,0.00,Rainwise IP-100,2013-09-04 09:11:00,
2013-09-04 04:16:00,63.6,61.0,29.08,SSE,157,0.0,0.0,92,0.00,,,0.00,Rainwise IP-100,2013-09-04 09:16:00,
2013-09-04 04:21:00,63.6,61.0,29.08,SSE,157,0.0,0.0,92,0.00,,,0.00,Rainwise IP-100,2013-09-04 09:21:00,
2013-09-04 04:26:00,63.5,61.0,29.08,SSE,157,0.0,0.0,93,0.00,,,0.00,Rainwise IP-100,2013-09-04 09:26:00,
2013-09-04 04:31:00,63.4,61.0,29.08,SSE,157,0.0,0.0,93,0.00,,,0.00,Rainwise IP-100,2013-09-04 09:31:00,
2013-09-04 04:36:00,63.2,61.0,29.08,SSE,157,0.0,0.0,93,0.00,,,0.00,Rainwise IP-100,2013-09-04 09:36:00,
2013-09-04 04:41:00,63.1,61.0,29.08,SSE,157,0.0,0.0,93,0.00,,,0.00,Rainwise IP-100,2013-09-04 09:41:00,
2013-09-04 04:46:00,63.0,61.0,29.09,SSE,157,0.0,0.0,93,0.00,,,0.00,Rainwise IP-100,2013-09-04 09:46:00,
2013-09-04 04:51:00,63.0,61.0,29.09,SSE,157,0.0,0.0,94,0.00,,,0.00,Rainwise IP-100,2013-09-04 09:51:00,
2013-09-04 04:56:00,63.1,61.0,29.09,SSE,157,0.0,0.0,94,0.00,,,0.00,Rainwise IP-100,2013-09-04 09:56:00,
2013-09-04 05:01:00,63.1,61.0,29.09,SSE,157,0.0,0.0,95,0.00,,,0.00,Rainwise IP-100,2013-09-04 10:01:00,
2013-09-04 05:06:00,63.1,61.0,29.09,SSE,157,0.0,0.0,95,0.00,,,0.00,Rainwise IP-100,2013-09-04 10:06:00,
2013-09-04 05:11:00,63.2,61.0,29.09,SSE,157,0.0,0.0,95,0.00,,,0.00,Rainwise IP-100,2013-09-04 10:11:00,
2013-09-04 05:16:00,63.2,61.0,29.09,SSE,157,0.0,0.0,95,0.00,,,0.00,Rainwise IP-100,2013-09-04 10:16:00,
2013-09-04 05:21:00,63.3,62.0,29.09,SSE,157,0.0,0.0,96,0.00,,,0.00,Rainwise IP-100,2013-09-04 10:21:00,
2013-09-04 05:26:00,63.4,62.0,29.09,SSE,157,0.0,0.0,96,0.00,,,0.00,Rainwise IP-100,2013-09-04 10:26:00,
2013-09-04 05:31:00,63.5,62.0,29.09,SSE,157,0.0,0.0,96,0.00,,,0.00,Rainwise IP-100,2013-09-04 10:31:00,
2013-09-04 05:36:00,63.6,62.0,29.09,SSE,157,0.0,0.0,96,0.00,,,0.00,Rainwise IP-100,2013-09-04 10:36:00,
2013-09-04 05:41:00,63.6,62.0,29.09,SSE,157,0.0,0.0,96,0.00,,,0.00,Rainwise IP-100,2013-09-04 10:41:00,
2013-09-04 05:46:00,63.5,62.0,29.09,SSE,157,0.0,0.0,95,0.00,,,0.00,Rainwise IP-100,2013-09-04 10:46:00,
2013-09-04 05:51:00,63.5,62.0,29.10,SSE,157,0.0,0.0,95,0.00,,,0.00,Rainwise IP-100,2013-09-04 10:51:00,
2013-09-04 05:56:00,63.6,62.0,29.09,SSE,157,0.0,0.0,96,0.00,,,0.00,Rainwise IP-100,2013-09-04 10:56:00,
2013-09-04 06:01:00,63.7,62.0,29.10,SSE,157,0.0,0.0,96,0.00,,,0.00,Rainwise IP-100,2013-09-04 11:01:00,
2013-09-04 06:06:00,63.7,62.0,29.10,SSE,157,0.0,0.0,96,0.00,,,0.00,Rainwise IP-100,2013-09-04 11:06:00,
2013-09-04 06:11:00,63.7,62.0,29.10,SSE,157,0.0,0.0,96,0.00,,,0.00,Rainwise IP-100,2013-09-04 11:11:00,
2013-09-04 06:16:00,63.7,62.0,29.10,SSE,157,0.0,0.0,96,0.00,,,0.00,Rainwise IP-100,2013-09-04 11:16:00,
2013-09-04 06:21:00,63.7,62.0,29.10,SSE,157,0.0,0.0,96,0.00,,,0.00,Rainwise IP-100,2013-09-04 11:21:00,
2013-09-04 06:26:00,63.7,62.0,29.11,SSE,157,0.0,0.0,96,0.00,,,0.00,Rainwise IP-100,2013-09-04 11:26:00,
2013-09-04 06:31:00,63.8,62.0,29.11,SSE,157,0.0,0.0,97,0.00,,,0.00,Rainwise IP-100,2013-09-04 11:31:00,
2013-09-04 06:36:00,63.7,62.0,29.11,SSE,157,0.0,0.0,97,0.00,,,0.00,Rainwise IP-100,2013-09-04 11:36:00,
2013-09-04 06:41:00,63.6,62.0,29.11,SSE,157,0.0,0.0,97,0.00,,,0.00,Rainwise IP-100,2013-09-04 11:41:00,
2013-09-04 06:46:00,63.5,62.0,29.11,SSE,157,0.0,0.0,97,0.00,,,0.00,Rainwise IP-100,2013-09-04 11:46:00,
2013-09-04 06:51:00,63.5,62.0,29.11,SSE,157,0.0,0.0,97,0.00,,,0.00,Rainwise IP-100,2013-09-04 11:51:00,
2013-09-04 06:56:00,63.4,62.0,29.11,SSE,157,0.0,0.0,97,0.00,,,0.00,Rainwise IP-100,2013-09-04 11:56:00,
2013-09-04 07:01:00,63.4,62.0,29.12,SSE,157,0.0,0.0,97,0.00,,,0.00,Rainwise IP-100,2013-09-04 12:01:00,
2013-09-04 07:06:00,63.7,62.0,29.12,West,270,0.0,4.0,97,0.00,,,0.00,Rainwise IP-100,2013-09-04 12:06:00,
2013-09-04 07:11:00,64.0,63.0,29.11,WSW,247,1.6,3.0,97,0.00,,,0.00,Rainwise IP-100,2013-09-04 12:11:00,
2013-09-04 07:16:00,64.5,63.0,29.12,WNW,292,5.1,6.0,97,0.00,,,0.00,Rainwise IP-100,2013-09-04 12:16:00,
2013-09-04 07:21:00,64.5,63.0,29.12,WNW,292,3.3,5.0,96,0.00,,,0.00,Rainwise IP-100,2013-09-04 12:21:00,
2013-09-04 07:26:00,64.5,63.0,29.12,WSW,247,3.3,5.0,95,0.00,,,0.00,Rainwise IP-100,2013-09-04 12:26:00,
2013-09-04 07:31:00,64.5,63.0,29.12,West,270,4.0,6.0,95,0.00,,,0.00,Rainwise IP-100,2013-09-04 12:31:00,
2013-09-04 07:36:00,64.6,62.0,29.13,WSW,247,2.6,5.0,94,0.00,,,0.00,Rainwise IP-100,2013-09-04 12:36:00,
2013-09-04 07:41:00,64.8,62.0,29.13,WSW,247,0.0,5.0,93,0.00,,,0.00,Rainwise IP-100,2013-09-04 12:41:00,
2013-09-04 07:46:00,65.0,62.0,29.13,WNW,292,2.8,6.0,92,0.00,,,0.00,Rainwise IP-100,2013-09-04 12:46:00,
2013-09-04 07:51:00,65.2,62.0,29.13,WSW,247,2.6,6.0,92,0.00,,,0.00,Rainwise IP-100,2013-09-04 12:51:00,
2013-09-04 07:56:00,65.3,62.0,29.13,West,270,3.0,4.0,91,0.00,,,0.00,Rainwise IP-100,2013-09-04 12:56:00,
2013-09-04 08:01:00,65.5,62.0,29.13,WSW,247,3.0,5.0,91,0.00,,,0.00,Rainwise IP-100,2013-09-04 13:01:00,
2013-09-04 08:06:00,65.6,62.0,29.13,West,270,2.6,4.0,91,0.00,,,0.00,Rainwise IP-100,2013-09-04 13:06:00,
2013-09-04 08:11:00,65.7,62.0,29.13,WSW,247,1.6,3.0,90,0.00,,,0.00,Rainwise IP-100,2013-09-04 13:11:00,
2013-09-04 08:16:00,65.8,62.0,29.13,WSW,247,2.3,4.0,90,0.00,,,0.00,Rainwise IP-100,2013-09-04 13:16:00,
2013-09-04 08:21:00,65.8,62.0,29.13,WSW,247,2.1,4.0,89,0.00,,,0.00,Rainwise IP-100,2013-09-04 13:21:00,
2013-09-04 08:26:00,66.2,63.0,29.13,WSW,247,0.0,2.0,89,0.00,,,0.00,Rainwise IP-100,2013-09-04 13:26:00,
2013-09-04 08:31:00,66.7,63.0,29.13,WSW,247,1.2,3.0,88,0.00,,,0.00,Rainwise IP-100,2013-09-04 13:31:00,
2013-09-04 08:36:00,67.0,63.0,29.13,WSW,247,1.9,2.0,87,0.00,,,0.00,Rainwise IP-100,2013-09-04 13:36:00,
2013-09-04 08:41:00,67.5,63.0,29.12,WNW,292,0.0,3.0,86,0.00,,,0.00,Rainwise IP-100,2013-09-04 13:41:00,
2013-09-04 08:46:00,67.9,63.0,29.12,WSW,247,0.0,2.0,85,0.00,,,0.00,Rainwise IP-100,2013-09-04 13:46:00,
2013-09-04 08:51:00,68.4,63.0,29.12,WNW,292,1.4,2.0,84,0.00,,,0.00,Rainwise IP-100,2013-09-04 13:51:00,
2013-09-04 08:56:00,69.1,63.0,29.12,WNW,292,0.0,1.0,83,0.00,,,0.00,Rainwise IP-100,2013-09-04 13:56:00,
2013-09-04 09:01:00,69.8,64.0,29.12,West,270,0.0,1.0,82,0.00,,,0.00,Rainwise IP-100,2013-09-04 14:01:00,
2013-09-04 09:06:00,70.5,64.0,29.13,West,270,0.0,1.0,81,0.00,,,0.00,Rainwise IP-100,2013-09-04 14:06:00,
2013-09-04 09:11:00,71.4,65.0,29.13,West,270,0.0,1.0,80,0.00,,,0.00,Rainwise IP-100,2013-09-04 14:11:00,
2013-09-04 09:16:00,72.3,65.0,29.12,West,270,0.0,0.0,79,0.00,,,0.00,Rainwise IP-100,2013-09-04 14:16:00,
2013-09-04 09:21:00,73.1,66.0,29.13,West,270,0.0,1.0,79,0.00,,,0.00,Rainwise IP-100,2013-09-04 14:21:00,
2013-09-04 09:26:00,73.9,66.0,29.13,West,270,0.0,1.0,78,0.00,,,0.00,Rainwise IP-100,2013-09-04 14:26:00,
2013-09-04 09:31:00,74.0,66.0,29.13,West,270,0.0,1.0,76,0.00,,,0.00,Rainwise IP-100,2013-09-04 14:31:00,
2013-09-04 09:36:00,72.8,65.0,29.13,WSW,247,2.8,3.0,76,0.00,,,0.00,Rainwise IP-100,2013-09-04 14:36:00,
2013-09-04 09:41:00,71.2,63.0,29.13,WSW,247,2.3,4.0,77,0.00,,,0.00,Rainwise IP-100,2013-09-04 14:41:00,
2013-09-04 09:46:00,71.1,64.0,29.13,West,270,1.9,3.0,80,0.00,,,0.00,Rainwise IP-100,2013-09-04 14:46:00,
2013-09-04 09:51:00,71.2,65.0,29.13,WSW,247,3.3,3.3,80,0.00,,,0.00,Rainwise IP-100,2013-09-04 14:51:00,
2013-09-04 09:56:00,71.4,64.0,29.13,WSW,247,0.0,3.0,79,0.00,,,0.00,Rainwise IP-100,2013-09-04 14:56:00,
2013-09-04 10:01:00,72.5,65.0,29.13,West,270,1.2,2.0,78,0.00,,,0.00,Rainwise IP-100,2013-09-04 15:01:00,
2013-09-04 10:06:00,74.0,66.0,29.13,NNE,22,1.6,2.0,76,0.00,,,0.00,Rainwise IP-100,2013-09-04 15:06:00,
2013-09-04 10:11:00,75.1,66.0,29.13,NW,315,2.8,3.0,73,0.00,,,0.00,Rainwise IP-100,2013-09-04 15:11:00,
2013-09-04 10:16:00,74.4,65.0,29.13,WNW,292,2.8,4.0,72,0.00,,,0.00,Rainwise IP-100,2013-09-04 15:16:00,
2013-09-04 10:21:00,73.6,64.0,29.13,NW,315,2.8,3.0,73,0.00,,,0.00,Rainwise IP-100,2013-09-04 15:21:00,
2013-09-04 10:26:00,74.1,65.0,29.13,West,270,2.3,2.3,73,0.00,,,0.00,Rainwise IP-100,2013-09-04 15:26:00,
2013-09-04 10:31:00,75.0,66.0,29.13,WNW,292,3.3,3.3,73,0.00,,,0.00,Rainwise IP-100,2013-09-04 15:31:00,
2013-09-04 10:36:00,75.0,65.0,29.13,NNW,337,1.9,4.0,72,0.00,,,0.00,Rainwise IP-100,2013-09-04 15:36:00,
2013-09-04 10:41:00,75.3,65.0,29.13,NNW,337,1.2,2.0,71,0.00,,,0.00,Rainwise IP-100,2013-09-04 15:41:00,
2013-09-04 10:46:00,76.4,66.0,29.13,NNE,22,1.6,3.0,70,0.00,,,0.00,Rainwise IP-100,2013-09-04 15:46:00,
2013-09-04 10:51:00,77.0,66.0,29.13,NNE,22,2.1,3.0,69,0.00,,,0.00,Rainwise IP-100,2013-09-04 15:51:00,
2013-09-04 10:56:00,77.1,66.0,29.13,NE,45,1.6,3.0,68,0.00,,,0.00,Rainwise IP-100,2013-09-04 15:56:00,
2013-09-04 11:01:00,77.7,66.0,29.13,NE,45,1.4,2.0,68,0.00,,,0.00,Rainwise IP-100,2013-09-04 16:01:00,
2013-09-04 11:06:00,78.8,66.0,29.13,NNE,22,1.9,3.0,67,0.00,,,0.00,Rainwise IP-100,2013-09-04 16:06:00,
2013-09-04 11:11:00,78.9,66.0,29.13,NNE,22,2.1,3.0,66,0.00,,,0.00,Rainwise IP-100,2013-09-04 16:11:00,
2013-09-04 11:16:00,78.8,66.0,29.14,NE,45,1.9,3.0,66,0.00,,,0.00,Rainwise IP-100,2013-09-04 16:16:00,
2013-09-04 11:21:00,78.5,66.0,29.13,NE,45,4.2,5.0,66,0.00,,,0.00,Rainwise IP-100,2013-09-04 16:21:00,
2013-09-04 11:26:00,77.9,66.0,29.14,NNE,22,3.7,4.0,66,0.00,,,0.00,Rainwise IP-100,2013-09-04 16:26:00,
2013-09-04 11:31:00,78.5,66.0,29.13,NNE,22,2.1,4.0,66,0.00,,,0.00,Rainwise IP-100,2013-09-04 16:31:00,
2013-09-04 11:36:00,79.9,66.0,29.14,NNE,22,0.0,2.0,64,0.00,,,0.00,Rainwise IP-100,2013-09-04 16:36:00,
2013-09-04 11:41:00,80.0,66.0,29.14,ENE,67,1.2,3.0,63,0.00,,,0.00,Rainwise IP-100,2013-09-04 16:41:00,
2013-09-04 11:46:00,78.7,65.0,29.14,ESE,112,1.4,2.0,63,0.00,,,0.00,Rainwise IP-100,2013-09-04 16:46:00,
2013-09-04 11:51:00,77.7,64.0,29.14,ESE,112,1.2,2.0,64,0.00,,,0.00,Rainwise IP-100,2013-09-04 16:51:00,
2013-09-04 11:56:00,77.5,65.0,29.14,ESE,112,1.4,2.0,65,0.00,,,0.00,Rainwise IP-100,2013-09-04 16:56:00,
2013-09-04 12:01:00,78.4,66.0,29.14,ESE,112,1.6,2.0,65,0.00,,,0.00,Rainwise IP-100,2013-09-04 17:01:00,
2013-09-04 12:06:00,80.4,67.0,29.14,SSW,202,0.0,1.0,65,0.00,,,0.00,Rainwise IP-100,2013-09-04 17:06:00,
2013-09-04 12:11:00,81.4,68.0,29.14,SSE,157,0.0,2.0,64,0.00,,,0.00,Rainwise IP-100,2013-09-04 17:11:00,
2013-09-04 12:16:00,81.5,68.0,29.14,SSE,157,0.0,2.0,63,0.00,,,0.00,Rainwise IP-100,2013-09-04 17:16:00,
2013-09-04 12:21:00,80.8,67.0,29.14,SE,135,1.6,2.0,63,0.00,,,0.00,Rainwise IP-100,2013-09-04 17:21:00,
2013-09-04 12:26:00,79.3,66.0,29.14,SE,135,1.2,2.0,65,0.00,,,0.00,Rainwise IP-100,2013-09-04 17:26:00,
2013-09-04 12:31:00,79.0,67.0,29.14,SE,135,0.0,2.0,67,0.00,,,0.00,Rainwise IP-100,2013-09-04 17:31:00,
2013-09-04 12:36:00,79.9,68.0,29.14,SE,135,0.0,1.0,67,0.00,,,0.00,Rainwise IP-100,2013-09-04 17:36:00,
2013-09-04 12:41:00,81.5,69.0,29.13,SE,135,0.0,1.0,65,0.00,,,0.00,Rainwise IP-100,2013-09-04 17:41:00,
2013-09-04 12:46:00,82.7,69.0,29.13,SE,135,0.0,1.0,63,0.00,,,0.00,Rainwise IP-100,2013-09-04 17:46:00,
2013-09-04 12:51:00,82.6,69.0,29.14,SE,135,0.0,1.0,63,0.00,,,0.00,Rainwise IP-100,2013-09-04 17:51:00,
2013-09-04 12:56:00,82.2,68.0,29.13,SE,135,0.0,1.0,63,0.00,,,0.00,Rainwise IP-100,2013-09-04 17:56:00,
2013-09-04 13:01:00,82.3,68.0,29.13,SE,135,0.0,1.0,63,0.00,,,0.00,Rainwise IP-100,2013-09-04 18:01:00,
2013-09-04 13:06:00,82.1,68.0,29.14,SE,135,0.0,2.0,63,0.00,,,0.00,Rainwise IP-100,2013-09-04 18:06:00,
2013-09-04 13:11:00,80.9,67.0,29.14,SE,135,2.3,3.0,64,0.00,,,0.00,Rainwise IP-100,2013-09-04 18:11:00,
2013-09-04 13:16:00,79.4,66.0,29.14,ESE,112,2.1,3.0,65,0.00,,,0.00,Rainwise IP-100,2013-09-04 18:16:00,
2013-09-04 13:21:00,78.9,67.0,29.14,ESE,112,0.0,4.0,67,0.00,,,0.00,Rainwise IP-100,2013-09-04 18:21:00,
2013-09-04 13:26:00,78.8,66.0,29.14,ESE,112,2.1,3.0,67,0.00,,,0.00,Rainwise IP-100,2013-09-04 18:26:00,
2013-09-04 13:31:00,79.1,67.0,29.14,ESE,112,1.4,2.0,67,0.00,,,0.00,Rainwise IP-100,2013-09-04 18:31:00,
2013-09-04 13:36:00,80.5,67.0,29.14,ENE,67,0.0,4.0,65,0.00,,,0.00,Rainwise IP-100,2013-09-04 18:36:00,
2013-09-04 13:41:00,82.1,67.0,29.14,North,360,2.3,5.0,61,0.00,,,0.00,Rainwise IP-100,2013-09-04 18:41:00,
2013-09-04 13:46:00,83.1,67.0,29.14,North,360,1.2,5.0,59,0.00,,,0.00,Rainwise IP-100,2013-09-04 18:46:00,
2013-09-04 13:51:00,83.4,66.0,29.14,North,360,3.7,7.0,57,0.00,,,0.00,Rainwise IP-100,2013-09-04 18:51:00,
2013-09-04 13:56:00,83.4,66.0,29.14,NNE,22,3.0,6.0,57,0.00,,,0.00,Rainwise IP-100,2013-09-04 18:56:00,
2013-09-04 14:01:00,83.5,66.0,29.13,WNW,292,5.6,5.6,57,0.00,,,0.00,Rainwise IP-100,2013-09-04 19:01:00,
2013-09-04 14:06:00,82.8,66.0,29.14,ENE,67,3.0,6.0,57,0.00,,,0.00,Rainwise IP-100,2013-09-04 19:06:00,
2013-09-04 14:11:00,81.0,65.0,29.13,ENE,67,4.4,7.0,58,0.00,,,0.00,Rainwise IP-100,2013-09-04 19:11:00,
2013-09-04 14:16:00,80.5,65.0,29.14,NNE,22,3.7,6.0,60,0.00,,,0.00,Rainwise IP-100,2013-09-04 19:16:00,
2013-09-04 14:21:00,81.7,66.0,29.14,NE,45,3.0,5.0,60,0.00,,,0.00,Rainwise IP-100,2013-09-04 19:21:00,
2013-09-04 14:26:00,82.2,66.0,29.13,NE,45,4.9,6.0,59,0.00,,,0.00,Rainwise IP-100,2013-09-04 19:26:00,
2013-09-04 14:31:00,81.9,66.0,29.13,NE,45,3.3,5.0,59,0.00,,,0.00,Rainwise IP-100,2013-09-04 19:31:00,
2013-09-04 14:36:00,81.3,66.0,29.13,East,90,5.8,6.0,60,0.00,,,0.00,Rainwise IP-100,2013-09-04 19:36:00,
2013-09-04 14:41:00,80.2,65.0,29.13,ENE,67,7.2,9.0,60,0.00,,,0.00,Rainwise IP-100,2013-09-04 19:41:00,
2013-09-04 14:46:00,80.0,65.0,29.13,ENE,67,3.0,8.0,60,0.00,,,0.00,Rainwise IP-100,2013-09-04 19:46:00,
2013-09-04 14:51:00,80.8,66.0,29.12,North,360,5.4,6.0,60,0.00,,,0.00,Rainwise IP-100,2013-09-04 19:51:00,
2013-09-04 14:56:00,81.7,66.0,29.13,ENE,67,6.1,7.0,59,0.00,,,0.00,Rainwise IP-100,2013-09-04 19:56:00,
2013-09-04 15:01:00,81.5,65.0,29.12,NNE,22,1.6,6.0,57,0.00,,,0.00,Rainwise IP-100,2013-09-04 20:01:00,
2013-09-04 15:06:00,81.8,64.0,29.12,East,90,0.0,5.0,56,0.00,,,0.00,Rainwise IP-100,2013-09-04 20:06:00,
2013-09-04 15:11:00,83.3,65.0,29.12,NNE,22,1.4,5.0,55,0.00,,,0.00,Rainwise IP-100,2013-09-04 20:11:00,
2013-09-04 15:16:00,84.4,65.0,29.12,NNE,22,1.6,4.0,53,0.00,,,0.00,Rainwise IP-100,2013-09-04 20:16:00,
2013-09-04 15:21:00,85.0,66.0,29.12,NE,45,1.9,3.0,53,0.00,,,0.00,Rainwise IP-100,2013-09-04 20:21:00,
2013-09-04 15:26:00,85.2,66.0,29.12,NNW,337,1.6,3.0,53,0.00,,,0.00,Rainwise IP-100,2013-09-04 20:26:00,
2013-09-04 15:31:00,85.2,65.0,29.11,North,360,2.8,4.0,52,0.00,,,0.00,Rainwise IP-100,2013-09-04 20:31:00,
2013-09-04 15:36:00,85.5,65.0,29.11,NNE,22,1.2,4.0,50,0.00,,,0.00,Rainwise IP-100,2013-09-04 20:36:00,
2013-09-04 15:41:00,85.8,64.0,29.12,West,270,0.0,3.0,49,0.00,,,0.00,Rainwise IP-100,2013-09-04 20:41:00,
2013-09-04 15:46:00,84.7,64.0,29.11,West,270,2.1,5.0,50,0.00,,,0.00,Rainwise IP-100,2013-09-04 20:46:00,
2013-09-04 15:51:00,83.5,64.0,29.11,WNW,292,2.1,5.0,52,0.00,,,0.00,Rainwise IP-100,2013-09-04 20:51:00,
2013-09-04 15:56:00,83.3,64.0,29.12,WNW,292,3.0,5.0,53,0.00,,,0.00,Rainwise IP-100,2013-09-04 20:56:00,
2013-09-04 16:01:00,84.1,64.0,29.12,NE,45,1.2,3.0,52,0.00,,,0.00,Rainwise IP-100,2013-09-04 21:01:00,
2013-09-04 16:06:00,85.1,65.0,29.12,North,360,2.3,4.0,51,0.00,,,0.00,Rainwise IP-100,2013-09-04 21:06:00,
2013-09-04 16:11:00,86.1,65.0,29.12,North,360,1.6,3.0,50,0.00,,,0.00,Rainwise IP-100,2013-09-04 21:11:00,
2013-09-04 16:16:00,86.5,65.0,29.11,WNW,292,1.6,3.0,49,0.00,,,0.00,Rainwise IP-100,2013-09-04 21:16:00,
2013-09-04 16:21:00,86.5,65.0,29.11,NNE,22,0.0,2.0,49,0.00,,,0.00,Rainwise IP-100,2013-09-04 21:21:00,
2013-09-04 16:26:00,86.3,65.0,29.11,ENE,67,0.0,2.0,49,0.00,,,0.00,Rainwise IP-100,2013-09-04 21:26:00,
2013-09-04 16:31:00,86.8,65.0,29.11,ENE,67,0.0,0.0,49,0.00,,,0.00,Rainwise IP-100,2013-09-04 21:31:00,
2013-09-04 16:36:00,87.4,66.0,29.11,WNW,292,0.0,1.0,49,0.00,,,0.00,Rainwise IP-100,2013-09-04 21:36:00,
2013-09-04 16:41:00,86.6,65.0,29.12,NW,315,0.0,4.0,49,0.00,,,0.00,Rainwise IP-100,2013-09-04 21:41:00,
2013-09-04 16:46:00,84.8,63.0,29.11,West,270,3.5,4.0,49,0.00,,,0.00,Rainwise IP-100,2013-09-04 21:46:00,
2013-09-04 16:51:00,83.6,63.0,29.11,WNW,292,1.6,4.0,50,0.00,,,0.00,Rainwise IP-100,2013-09-04 21:51:00,
2013-09-04 16:52:00,83.6,63.0,29.11,WNW,292,2.3,4.0,50,0.00,,,0.00,Rainwise IP-100,2013-09-04 21:52:00,
2013-09-04 16:57:00,83.2,64.0,29.11,WNW,292,2.1,4.0,52,0.00,,,0.00,Rainwise IP-100,2013-09-04 21:57:00,
2013-09-04 17:02:00,83.6,64.0,29.11,WNW,292,1.6,3.0,52,0.00,,,0.00,Rainwise IP-100,2013-09-04 22:02:00,
2013-09-04 17:07:00,83.8,64.0,29.12,WSW,247,0.0,3.0,52,0.00,,,0.00,Rainwise IP-100,2013-09-04 22:07:00,
2013-09-04 17:12:00,83.2,64.0,29.12,WNW,292,2.8,4.0,53,0.00,,,0.00,Rainwise IP-100,2013-09-04 22:12:00,
2013-09-04 17:15:00,82.9,64.0,29.12,WNW,292,1.6,3.0,53,0.00,,,0.00,Rainwise IP-100,2013-09-04 22:15:00,
2013-09-04 17:20:00,82.9,65.0,29.11,North,360,1.4,3.0,54,0.00,,,0.00,Rainwise IP-100,2013-09-04 22:20:00,
2013-09-04 17:25:00,83.1,65.0,29.12,WNW,292,2.8,3.0,54,0.00,,,0.00,Rainwise IP-100,2013-09-04 22:25:00,
2013-09-04 17:30:00,82.8,64.0,29.11,WNW,292,1.6,4.0,54,0.00,,,0.00,Rainwise IP-100,2013-09-04 22:30:00,
2013-09-04 17:35:00,82.5,64.0,29.12,West,270,2.3,3.0,54,0.00,,,0.00,Rainwise IP-100,2013-09-04 22:35:00,
2013-09-04 17:40:00,82.2,64.0,29.12,WNW,292,2.3,3.0,54,0.00,,,0.00,Rainwise IP-100,2013-09-04 22:40:00,
2013-09-04 17:45:00,82.1,63.0,29.12,WNW,292,1.6,3.0,54,0.00,,,0.00,Rainwise IP-100,2013-09-04 22:45:00,
2013-09-04 17:50:00,82.0,64.0,29.12,WNW,292,2.1,3.0,55,0.00,,,0.00,Rainwise IP-100,2013-09-04 22:50:00,
2013-09-04 17:55:00,81.9,64.0,29.11,WNW,292,1.9,3.0,55,0.00,,,0.00,Rainwise IP-100,2013-09-04 22:55:00,
2013-09-04 18:00:00,81.9,65.0,29.12,NW,315,0.0,2.0,56,0.00,,,0.00,Rainwise IP-100,2013-09-04 23:00:00,
2013-09-04 18:05:00,81.9,65.0,29.12,WNW,292,0.0,3.0,56,0.00,,,0.00,Rainwise IP-100,2013-09-04 23:05:00,
2013-09-04 18:10:00,81.8,64.0,29.11,NW,315,0.0,2.0,56,0.00,,,0.00,Rainwise IP-100,2013-09-04 23:10:00,
2013-09-04 18:15:00,81.9,65.0,29.11,NNW,337,1.2,2.0,56,0.00,,,0.00,Rainwise IP-100,2013-09-04 23:15:00,
2013-09-04 18:20:00,81.9,65.0,29.11,WNW,292,1.2,2.0,56,0.00,,,0.00,Rainwise IP-100,2013-09-04 23:20:00,
2013-09-04 18:25:00,81.7,65.0,29.12,WNW,292,0.0,1.0,58,0.00,,,0.00,Rainwise IP-100,2013-09-04 23:25:00,
2013-09-04 18:30:00,81.6,66.0,29.12,North,360,0.0,2.0,59,0.00,,,0.00,Rainwise IP-100,2013-09-04 23:30:00,
2013-09-04 18:35:00,81.5,66.0,29.12,NNW,337,1.6,1.6,59,0.00,,,0.00,Rainwise IP-100,2013-09-04 23:35:00,
2013-09-04 18:40:00,81.5,66.0,29.12,NW,315,0.0,2.0,59,0.00,,,0.00,Rainwise IP-100,2013-09-04 23:40:00,
2013-09-04 18:45:00,81.3,66.0,29.12,NW,315,1.9,3.0,59,0.00,,,0.00,Rainwise IP-100,2013-09-04 23:45:00,
2013-09-04 18:50:00,80.9,66.0,29.11,NW,315,1.9,3.0,60,0.00,,,0.00,Rainwise IP-100,2013-09-04 23:50:00,
2013-09-04 18:55:00,80.4,66.0,29.11,North,360,1.2,2.0,62,0.00,,,0.00,Rainwise IP-100,2013-09-04 23:55:00,
2013-09-04 19:00:00,80.3,66.0,29.12,North,360,1.4,2.0,63,0.00,,,0.00,Rainwise IP-100,2013-09-05 00:00:00,
2013-09-04 19:05:00,80.1,66.0,29.12,NNE,22,3.7,4.0,63,0.00,,,0.00,Rainwise IP-100,2013-09-05 00:05:00,
2013-09-04 19:10:00,79.5,66.0,29.12,NNE,22,4.4,5.0,64,0.00,,,0.00,Rainwise IP-100,2013-09-05 00:10:00,
2013-09-04 19:15:00,79.0,67.0,29.12,NE,45,4.2,6.0,67,0.00,,,0.00,Rainwise IP-100,2013-09-05 00:15:00,
2013-09-04 19:20:00,78.4,66.0,29.13,NNE,22,4.7,8.0,67,0.00,,,0.00,Rainwise IP-100,2013-09-05 00:20:00,
2013-09-04 19:25:00,77.8,65.0,29.12,NNE,22,4.2,8.0,66,0.00,,,0.00,Rainwise IP-100,2013-09-05 00:25:00,
2013-09-04 19:30:00,77.3,65.0,29.12,NE,45,4.7,7.0,66,0.00,,,0.00,Rainwise IP-100,2013-09-05 00:30:00,
2013-09-04 19:35:00,76.9,66.0,29.12,NE,45,6.3,8.0,68,0.00,,,0.00,Rainwise IP-100,2013-09-05 00:35:00,
2013-09-04 19:40:00,76.5,65.0,29.12,NE,45,5.8,7.0,68,0.00,,,0.00,Rainwise IP-100,2013-09-05 00:40:00,
2013-09-04 19:45:00,76.2,65.0,29.12,NE,45,5.4,7.0,69,0.00,,,0.00,Rainwise IP-100,2013-09-05 00:45:00,
2013-09-04 19:50:00,76.0,65.0,29.12,ENE,67,7.7,7.7,70,0.00,,,0.00,Rainwise IP-100,2013-09-05 00:50:00,
2013-09-04 19:55:00,75.8,65.0,29.13,NE,45,6.3,9.0,71,0.00,,,0.00,Rainwise IP-100,2013-09-05 00:55:00,
2013-09-04 20:00:00,75.7,65.0,29.13,NE,45,5.6,9.0,71,0.00,,,0.00,Rainwise IP-100,2013-09-05 01:00:00,
2013-09-04 20:05:00,75.5,65.0,29.13,NE,45,5.6,8.0,70,0.00,,,0.00,Rainwise IP-100,2013-09-05 01:05:00,
2013-09-04 20:10:00,75.2,65.0,29.13,ENE,67,5.4,6.0,70,0.00,,,0.00,Rainwise IP-100,2013-09-05 01:10:00,
2013-09-04 20:15:00,75.1,65.0,29.13,NE,45,4.2,7.0,71,0.00,,,0.00,Rainwise IP-100,2013-09-05 01:15:00,
2013-09-04 20:20:00,75.0,65.0,29.13,NNE,22,4.7,6.0,71,0.00,,,0.00,Rainwise IP-100,2013-09-05 01:20:00,
2013-09-04 20:25:00,74.8,65.0,29.14,NE,45,3.3,6.0,71,0.00,,,0.00,Rainwise IP-100,2013-09-05 01:25:00,
2013-09-04 20:30:00,74.5,65.0,29.14,NNE,22,3.7,5.0,72,0.00,,,0.00,Rainwise IP-100,2013-09-05 01:30:00,
2013-09-04 20:35:00,74.4,65.0,29.14,NNE,22,4.4,7.0,72,0.00,,,0.00,Rainwise IP-100,2013-09-05 01:35:00,
2013-09-04 20:40:00,74.3,65.0,29.14,NE,45,3.7,6.0,72,0.00,,,0.00,Rainwise IP-100,2013-09-05 01:40:00,
2013-09-04 20:45:00,74.2,65.0,29.14,NE,45,5.4,5.4,72,0.00,,,0.00,Rainwise IP-100,2013-09-05 01:45:00,
2013-09-04 20:50:00,74.0,64.0,29.14,NE,45,4.9,7.0,72,0.00,,,0.00,Rainwise IP-100,2013-09-05 01:50:00,
2013-09-04 20:55:00,73.8,64.0,29.15,NNE,22,4.4,6.0,72,0.00,,,0.00,Rainwise IP-100,2013-09-05 01:55:00,
2013-09-04 21:00:00,73.6,64.0,29.15,North,360,3.0,6.0,73,0.00,,,0.00,Rainwise IP-100,2013-09-05 02:00:00,
2013-09-04 21:05:00,73.5,64.0,29.15,NE,45,3.0,5.0,73,0.00,,,0.00,Rainwise IP-100,2013-09-05 02:05:00,
2013-09-04 21:10:00,73.4,64.0,29.15,NE,45,4.0,5.0,73,0.00,,,0.00,Rainwise IP-100,2013-09-05 02:10:00,
2013-09-04 21:15:00,73.2,64.0,29.15,NE,45,4.2,5.0,73,0.00,,,0.00,Rainwise IP-100,2013-09-05 02:15:00,
2013-09-04 21:20:00,73.1,64.0,29.16,NE,45,3.7,4.0,73,0.00,,,0.00,Rainwise IP-100,2013-09-05 02:20:00,
2013-09-04 21:25:00,73.0,64.0,29.16,NE,45,5.4,5.4,74,0.00,,,0.00,Rainwise IP-100,2013-09-05 02:25:00,
2013-09-04 21:30:00,72.9,64.0,29.16,NE,45,4.0,7.0,74,0.00,,,0.00,Rainwise IP-100,2013-09-05 02:30:00,
2013-09-04 21:35:00,72.8,63.0,29.16,NE,45,2.8,6.0,73,0.00,,,0.00,Rainwise IP-100,2013-09-05 02:35:00,
2013-09-04 21:40:00,72.8,63.0,29.16,ENE,67,5.4,7.0,73,0.00,,,0.00,Rainwise IP-100,2013-09-05 02:40:00,
2013-09-04 21:45:00,72.8,63.0,29.16,NNE,22,4.0,8.0,72,0.00,,,0.00,Rainwise IP-100,2013-09-05 02:45:00,
2013-09-04 21:50:00,72.6,63.0,29.16,NNE,22,5.8,7.0,72,0.00,,,0.00,Rainwise IP-100,2013-09-05 02:50:00,
2013-09-04 21:55:00,72.6,63.0,29.16,ENE,67,6.1,6.1,72,0.00,,,0.00,Rainwise IP-100,2013-09-05 02:55:00,
2013-09-04 22:00:00,72.5,63.0,29.17,NNE,22,2.1,6.0,72,0.00,,,0.00,Rainwise IP-100,2013-09-05 03:00:00,
2013-09-04 22:05:00,72.4,63.0,29.16,NE,45,4.7,9.0,72,0.00,,,0.00,Rainwise IP-100,2013-09-05 03:05:00,
2013-09-04 22:10:00,72.2,63.0,29.16,NE,45,5.1,7.0,72,0.00,,,0.00,Rainwise IP-100,2013-09-05 03:10:00,
2013-09-04 22:15:00,72.0,62.0,29.17,North,360,4.9,7.0,71,0.00,,,0.00,Rainwise IP-100,2013-09-05 03:15:00,
2013-09-04 22:20:00,71.8,62.0,29.17,NE,45,5.6,8.0,72,0.00,,,0.00,Rainwise IP-100,2013-09-05 03:20:00,
2013-09-04 22:25:00,71.6,62.0,29.17,ENE,67,8.6,8.6,72,0.00,,,0.00,Rainwise IP-100,2013-09-05 03:25:00,
2013-09-04 22:30:00,71.4,61.0,29.17,NE,45,6.3,9.0,72,0.00,,,0.00,Rainwise IP-100,2013-09-05 03:30:00,
2013-09-04 22:35:00,71.2,62.0,29.17,NNE,22,4.4,7.0,73,0.00,,,0.00,Rainwise IP-100,2013-09-05 03:35:00,
2013-09-04 22:40:00,71.0,61.0,29.17,NE,45,4.9,7.0,73,0.00,,,0.00,Rainwise IP-100,2013-09-05 03:40:00,
2013-09-04 22:45:00,70.8,61.0,29.17,ENE,67,5.8,8.0,73,0.00,,,0.00,Rainwise IP-100,2013-09-05 03:45:00,
2013-09-04 22:50:00,70.7,61.0,29.17,ENE,67,6.1,8.0,73,0.00,,,0.00,Rainwise IP-100,2013-09-05 03:50:00,
2013-09-04 22:55:00,70.6,61.0,29.17,NNE,22,4.2,10.0,73,0.00,,,0.00,Rainwise IP-100,2013-09-05 03:55:00,
2013-09-04 23:00:00,70.6,61.0,29.18,NE,45,8.2,9.0,73,0.00,,,0.00,Rainwise IP-100,2013-09-05 04:00:00,
2013-09-04 23:01:00,70.6,61.0,29.18,NE,45,5.6,9.0,73,0.00,,,0.00,Rainwise IP-100,2013-09-05 04:01:00,
2013-09-04 23:06:00,70.6,61.0,29.18,ENE,67,5.8,11.0,73,0.00,,,0.00,Rainwise IP-100,2013-09-05 04:06:00,
2013-09-04 23:11:00,70.6,61.0,29.18,ENE,67,5.8,7.0,72,0.00,,,0.00,Rainwise IP-100,2013-09-05 04:11:00,
2013-09-04 23:16:00,70.5,61.0,29.18,ENE,67,6.5,9.0,73,0.00,,,0.00,Rainwise IP-100,2013-09-05 04:16:00,
2013-09-04 23:21:00,70.3,61.0,29.18,NE,45,4.2,7.0,73,0.00,,,0.00,Rainwise IP-100,2013-09-05 04:21:00,
2013-09-04 23:26:00,70.1,61.0,29.18,NE,45,3.3,6.0,73,0.00,,,0.00,Rainwise IP-100,2013-09-05 04:26:00,
2013-09-04 23:31:00,69.9,61.0,29.19,ENE,67,4.7,7.0,73,0.00,,,0.00,Rainwise IP-100,2013-09-05 04:31:00,
2013-09-04 23:36:00,69.9,61.0,29.19,ENE,67,6.5,7.0,73,0.00,,,0.00,Rainwise IP-100,2013-09-05 04:36:00,
2013-09-04 23:41:00,69.8,61.0,29.19,ENE,67,7.2,9.0,74,0.00,,,0.00,Rainwise IP-100,2013-09-05 04:41:00,
2013-09-04 23:46:00,69.8,61.0,29.19,NE,45,5.6,9.0,74,0.00,,,0.00,Rainwise IP-100,2013-09-05 04:46:00,
2013-09-04 23:51:00,69.7,61.0,29.19,ENE,67,5.8,7.0,74,0.00,,,0.00,Rainwise IP-100,2013-09-05 04:51:00,
2013-09-04 23:56:00,69.7,61.0,29.19,NE,45,4.4,7.0,74,0.00,,,0.00,Rainwise IP-100,2013-09-05 04:56:00,